Preview of NWS' New Version of Forecast
This preview is not operational and should not be used for support decisions.

Regional Weather Roundup (RWR)

Issued by National Weather Service (NWS)

                            
000
ASUS44 KJAN 190410
RWRMS 

MISSISSIPPI HOURLY WEATHER ROUNDUP
NATIONAL WEATHER SERVICE JACKSON MS
1100 PM CDT TUE JUN 18 2019

NOTE: "FAIR: INDICATES FEW OR NO CLOUDS BELOW 12,000 FEET WITH NO
SIGNIFICANT WEATHER AND/OR OBSTRUCTIONS TO VISIBILITY.

MSZ001>002-007>008-010>013-018>021-025>028-034>036-190500-
NORTHWEST MISSISSIPPI
  
CITY           SKY/WX    TMP DP  RH WIND       PRES   REMARKS
BATESVILLE     CLOUDY    77  73  88 S3        29.86R                  
CLARKSDALE     PTCLDY    79  73  83 S6        29.86R                  
CLEVELAND      MOCLDY    76  76 100 S3        29.86R                  
GREENWOOD      CLOUDY    75  72  90 CALM      29.87R                  
GREENVILLE     FAIR      77  72  84 S3        29.86R                  
OLIVE BRANCH     N/A     73  73 100 S7        29.87R                  
OXFORD         FAIR      73  72  94 CALM      29.89R                  
TUNICA           N/A     73  70  88 E3        29.87R                  
WINONA         CLOUDY    73  73 100 CALM      29.88S                  
$$

MSZ003>006-009-014>017-022>024-029>033-037>039-190500-
NORTHEAST MISSISSIPPI
  
CITY           SKY/WX    TMP DP  RH WIND       PRES   REMARKS
ABERDEEN       FAIR      70  70 100 CALM      29.89R                  
COLUMBUS AFB   FAIR      71  70  95 CALM      29.87R                  
CORINTH        FAIR      75  73  94 S6        29.87R                  
GOLDN TRIANGLE MOCLDY    75  72  90 S5        29.89R                  
STARKVILLE     CLOUDY    72  70  94 CALM      29.90S                  
TUPELO         FAIR      73  70  90 S3        29.87R                  
$$

MSZ040-058-190500-
CENTRAL MISSISSIPPI
  
CITY           SKY/WX    TMP DP  RH WIND       PRES   REMARKS
JACKSON INTL   FAIR      75  71  87 CALM      29.88R                  
JACKSON HAWKNS FAIR      77  73  87 CALM      29.89R                  
MADISON        FAIR      72  72 100 CALM      29.89R                  
MERIDIAN KEY   FAIR      77  73  87 S5        29.89S                  
MERIDIAN NAS   LGT RAIN  78  73  84 VRB3      29.89S                  
RAYMOND        FAIR      73  73 100 CALM      29.88S                  
VICKSBURG VKS  CLEAR     75  75 100 CALM      29.88R                  
$$

MSZ059>079-190500-
SOUTH MISSISSIPPI
  
CITY           SKY/WX    TMP DP  RH WIND       PRES   REMARKS
HATTIESBURG    FAIR      78  75  90 S7        29.90S                  
LAUREL         MOCLDY    78  75  92 SE5       29.90S                  
MCCOMB         FAIR      75  72  90 CALM      29.91R                  
NATCHEZ        FAIR      76  73  91 CALM      29.89S                  
PINE BELT      FAIR      77  75  93 SE5       29.91R                  
$$

MSZ080>082-190500-
COASTAL MISSISSIPPI
  
CITY           SKY/WX    TMP DP  RH WIND       PRES   REMARKS
BILOXI         FAIR      81  77  89 SW10      29.90R                  
PASCAGOULA     FAIR      77  74  90 CALM      29.91R                  
GULFPORT       FAIR      81  76  84 SW5       29.90R                  
$$

LAZ007>009-015>016-023>026-190500-
NORTHEAST LOUISIANA
  
CITY           SKY/WX    TMP DP  RH WIND       PRES   REMARKS
BASTROP        FAIR      72  72  98 CALM      29.87S                  
TALLULAH/VBURG FAIR      77  74  90 CALM      29.87S                  
VIDALIA        FAIR      77  74  89 CALM      29.87S                  
$$